EW2812 Weather Reports


time (UTC)temp
C
wind
direction
speed
KPH
gust
KPH
rain 1hr
cm
rain 24hr
cm
rain mn
cm
humidity
%
barometer
mb
20260506124519 -17 18 0.0 0.0 0.00 0.00 0.00 1012.3
20260506123019 -17 297 0.0 0.0 0.00 0.00 0.00 1012.1
20260506121510 -17 292 0.0 0.0 0.00 0.00 0.00 1012.1
20260506114606 -17 294 0.0 0.0 0.00 0.00 0.00 1012.1
20260506113056 -17 294 0.0 0.0 0.00 0.00 0.00 1012.0
20260506111551 -17 289 0.0 0.0 0.00 0.00 0.00 1012.1
20260506110146 -17 355 0.0 0.0 0.00 0.00 0.00 1012.1
20260506104553 -17 355 0.0 0.0 0.00 0.00 0.00 1012.0
20260506103040 -17 300 0.0 0.0 0.00 0.00 0.00 1012.0
20260506101536 -17 300 0.0 0.0 0.00 0.00 0.00 1012.1
20260506100130 -17 298 0.0 0.0 0.00 0.00 0.00 1012.1
20260506094527 -17 11 0.0 0.0 0.00 0.00 0.00 1012.1
20260506093030 -17 360 0.0 0.0 0.00 0.00 0.00 1012.1
20260506091516 -17 355 0.0 0.0 0.00 0.00 0.00 1012.0
20260506090112 -17 360 0.0 0.0 0.00 0.00 0.00 1011.8
20260506084513 -17 5 0.0 0.0 0.00 0.00 0.00 1011.8
20260506083007 -17 306 0.0 0.0 0.00 0.00 0.00 1011.8
20260506081507 -17 304 0.0 0.0 0.00 0.00 0.00 1011.8
20260506080104 -17 302 0.0 0.0 0.00 0.00 0.00 1011.9
20260506073051 -17 300 0.0 0.0 0.00 0.00 0.00 1011.8
20260506071545 -17 300 0.0 0.0 0.00 0.00 0.00 1011.8
20260506061541 -17 300 0.0 0.0 0.00 0.00 0.00 1011.6
20260506044517 -17 299 0.0 0.0 0.00 0.00 0.00 1011.4
20260506043012 -17 299 0.0 0.0 0.00 0.00 0.00 1011.3
20260506041507 -17 321 0.0 0.0 0.00 0.00 0.00 1011.3
20260506040003 -17 325 0.0 0.0 0.00 0.00 0.00 1011.2
20260506034610 -17 325 0.0 0.0 0.00 0.00 0.00 1011.3
20260506033046 -17 326 0.0 0.0 0.00 0.00 0.00 1011.3
20260506031550 -17 317 0.0 0.0 0.00 0.00 0.00 1011.4
20260506030037 -17 313 0.0 0.0 0.00 0.00 0.00 1011.5
20260506024546 -17 238 0.0 0.0 0.00 0.00 0.00 1011.7
20260506023036 -17 33 0.0 0.0 0.00 0.00 0.00 1011.8
20260506021533 -17 28 0.0 0.0 0.00 0.00 0.00 1011.8
20260506020030 -17 28 0.0 0.0 0.00 0.00 0.00 1011.8
20260506014522 -17 28 0.0 0.0 0.00 0.00 0.00 1011.8
20260506013021 -17 351 0.0 0.0 0.00 0.00 0.00 1011.9
20260506011518 -17 351 0.0 0.0 0.00 0.00 0.00 1011.9
20260506010027 -17 331 0.0 0.0 0.00 0.00 0.00 1012.0
20260506004508 -17 340 0.0 0.0 0.00 0.00 0.00 1012.1
20260506003004 -17 355 0.0 0.0 0.00 0.00 0.00 1012.2
20260506001609 -17 347 0.0 0.0 0.00 0.00 0.00 1012.3
20260506000056 -17 360 0.0 0.0 0.00 0.00 0.00 1012.2
20260505234550 -17 292 0.0 0.0 0.00 0.00 0.00 1012.3
20260505233057 -17 41 0.0 0.0 0.00 0.00 0.00 1012.1
20260505231541 -17 355 0.0 0.0 0.00 0.00 0.00 1012.1
20260505230041 -17 36 0.0 0.0 0.00 0.00 0.00 1012.2
20260505224543 -17 341 0.0 0.0 0.00 0.00 0.00 1012.3
20260505223036 -17 351 0.0 0.0 0.00 0.00 0.00 1012.2
20260505221529 -17 346 0.0 0.0 0.00 0.00 0.00 1012.2
20260505220027 -17 55 0.0 0.0 0.00 0.00 0.00 1012.2
20260505214517 -17 60 0.0 0.0 0.00 0.00 0.00 1012.1
20260505213020 -17 60 0.0 0.0 0.00 0.00 0.00 1012.1
20260505211508 -17 60 0.0 0.0 0.00 0.00 0.00 1012.1
20260505210004 -17 60 0.0 0.0 0.00 0.00 0.00 1012.1
20260505204505 -17 60 0.0 0.0 0.00 0.00 0.00 1012.1
20260505203001 -17 60 0.0 0.0 0.00 0.00 0.00 1012.1
20260505201559 -17 60 0.0 0.0 0.00 0.00 0.00 1012.0
20260505200053 -17 59 0.0 0.0 0.00 0.00 0.00 1011.8
20260505194556 -17 48 0.0 0.0 0.00 0.00 0.00 1011.6
20260505193053 -17 9 0.0 0.0 0.00 0.00 0.00 1011.4
20260505191601 -17 5 0.0 0.0 0.00 0.00 0.00 1011.4
20260505190054 -17 5 0.0 0.0 0.00 0.00 0.00 1011.4
20260505184542 -17 5 0.0 0.0 0.00 0.00 0.00 1011.2
20260505183047 -17 338 0.0 0.0 0.00 0.00 0.00 1011.2
20260505181533 -17 336 0.0 0.0 0.00 0.00 0.00 1011.1
20260505180024 -17 26 0.0 0.0 0.00 0.00 0.00 1011.1
20260505174511 -17 50 0.0 0.0 0.00 0.00 0.00 1011.0
20260505173006 -17 82 0.0 0.0 0.00 0.00 0.00 1010.9
20260505171502 -17 57 0.0 0.0 0.00 0.00 0.00 1011.0
20260505170058 -17 76 0.0 0.0 0.00 0.00 0.00 1011.1
20260505164503 -17 16 0.0 0.0 0.00 0.00 0.00 1011.1
20260505163058 -17 28 0.0 0.0 0.00 0.00 0.00 1011.1
20260505161616 -17 57 0.0 0.0 0.00 0.00 0.00 1011.1
20260505153039 -17 82 0.0 0.0 0.00 0.00 0.00 1011.3
20260505151536 -17 147 0.0 0.0 0.00 0.00 0.00 1011.3